Radiation Dose at Monitoring Post of Fukushima Daini Nuclear Power Station
Date,Time,MP-1(microSv/h),MP-2(microSv/h),MP-3(microSv/h),MP-4(microSv/h),MP-5(microSv/h),MP-6(microSv/h),MP-7(microSv/h),Wind Direction,Wind Velocity(m/s),Rain
2014/11/08,00:00,0.624,0.412,0.655,0.589,0.587,0.271,0.237,north,1.9,No
2014/11/08,00:10,0.621,0.412,0.656,0.591,0.587,0.271,0.237,-,CALM,No
2014/11/08,00:20,0.624,0.411,0.655,0.589,0.587,0.270,0.237,-,CALM,No
2014/11/08,00:30,0.622,0.412,0.654,0.589,0.589,0.271,0.238,north,0.8,No
2014/11/08,00:40,0.623,0.411,0.655,0.592,0.589,0.271,0.238,north-northwest,1.4,No
2014/11/08,00:50,0.622,0.411,0.654,0.591,0.586,0.271,0.237,north,2.4,No
2014/11/08,01:00,0.623,0.412,0.658,0.591,0.586,0.270,0.237,north-northwest,2.3,No
2014/11/08,01:10,0.622,0.413,0.655,0.590,0.587,0.270,0.237,north-northwest,2.2,No
2014/11/08,01:20,0.622,0.410,0.656,0.592,0.586,0.270,0.238,north,2.1,No
2014/11/08,01:30,0.621,0.412,0.654,0.590,0.588,0.272,0.239,north-northwest,1.2,No
2014/11/08,01:40,0.621,0.412,0.656,0.588,0.588,0.269,0.238,north-northwest,1.6,No
2014/11/08,01:50,0.623,0.412,0.656,0.590,0.588,0.270,0.236,north-northwest,2.2,No
2014/11/08,02:00,0.623,0.411,0.654,0.589,0.587,0.269,0.237,northwest,1.9,No
2014/11/08,02:10,0.622,0.412,0.654,0.591,0.585,0.270,0.238,north-northwest,1.1,No
2014/11/08,02:20,0.623,0.411,0.656,0.591,0.588,0.270,0.236,northwest,1.4,No
2014/11/08,02:30,0.624,0.411,0.655,0.591,0.587,0.271,0.238,north-northwest,1.9,No
2014/11/08,02:40,0.622,0.411,0.656,0.591,0.587,0.270,0.237,north-northwest,1.2,No
2014/11/08,02:50,0.623,0.413,0.655,0.591,0.589,0.271,0.237,north-northwest,2.3,No
2014/11/08,03:00,0.624,0.410,0.655,0.589,0.586,0.270,0.237,north-northwest,2.6,No
2014/11/08,03:10,0.621,0.412,0.656,0.590,0.588,0.270,0.237,north-northwest,3.2,No
2014/11/08,03:20,0.624,0.411,0.657,0.590,0.587,0.270,0.238,northwest,3.1,No
2014/11/08,03:30,0.622,0.412,0.655,0.592,0.586,0.270,0.238,north,2.1,No
2014/11/08,03:40,0.624,0.412,0.656,0.592,0.585,0.269,0.237,north-northwest,2.2,No
2014/11/08,03:50,0.622,0.412,0.656,0.592,0.588,0.271,0.237,north-northwest,2.0,No
2014/11/08,04:00,0.621,0.413,0.656,0.591,0.590,0.270,0.236,north-northwest,1.8,No
2014/11/08,04:10,0.623,0.411,0.656,0.591,0.588,0.271,0.237,northwest,2.1,No
2014/11/08,04:20,0.621,0.412,0.656,0.592,0.588,0.270,0.237,west-northwest,0.9,No
2014/11/08,04:30,0.623,0.411,0.657,0.592,0.587,0.269,0.236,northeast,2.0,No
2014/11/08,04:40,0.623,0.411,0.655,0.592,0.588,0.271,0.237,north-northeast,0.8,No
2014/11/08,04:50,0.623,0.411,0.657,0.591,0.587,0.271,0.237,northeast,1.3,No
2014/11/08,05:00,0.622,0.412,0.658,0.593,0.588,0.270,0.237,north-northeast,1.7,No
2014/11/08,05:10,0.622,0.411,0.658,0.591,0.588,0.270,0.237,north-northeast,1.2,No
2014/11/08,05:20,0.623,0.411,0.656,0.589,0.588,0.270,0.237,north,2.8,No
2014/11/08,05:30,0.623,0.412,0.659,0.593,0.589,0.270,0.236,north,2.1,No
2014/11/08,05:40,0.624,0.413,0.655,0.592,0.588,0.270,0.237,north,1.4,No
2014/11/08,05:50,0.621,0.412,0.654,0.592,0.588,0.272,0.238,north-northwest,1.4,No
2014/11/08,06:00,0.623,0.412,0.657,0.592,0.588,0.271,0.238,south-southwest,1.1,No
2014/11/08,06:10,0.624,0.412,0.657,0.590,0.587,0.271,0.236,north-northeast,1.2,No
2014/11/08,06:20,0.620,0.412,0.657,0.592,0.586,0.270,0.239,west-northwest,1.0,No
2014/11/08,06:30,0.624,0.411,0.656,0.591,0.587,0.271,0.236,northwest,1.3,No
2014/11/08,06:40,0.624,0.412,0.657,0.593,0.586,0.270,0.238,west-northwest,2.2,No
2014/11/08,06:50,0.624,0.410,0.655,0.593,0.588,0.269,0.237,west-northwest,2.7,No
2014/11/08,07:00,0.621,0.413,0.658,0.592,0.588,0.270,0.237,west-northwest,3.0,No
2014/11/08,07:10,0.622,0.412,0.656,0.593,0.588,0.271,0.237,west,2.8,No
2014/11/08,07:20,0.623,0.411,0.658,0.591,0.588,0.270,0.237,west,4.1,No
2014/11/08,07:30,0.623,0.413,0.655,0.592,0.589,0.270,0.237,west-northwest,3.8,No
2014/11/08,07:40,0.624,0.412,0.657,0.592,0.589,0.271,0.237,west-northwest,3.6,No
2014/11/08,07:50,0.622,0.412,0.657,0.593,0.588,0.270,0.238,west-northwest,5.6,No
2014/11/08,08:00,0.624,0.413,0.657,0.591,0.588,0.270,0.237,west-northwest,6.7,No
2014/11/08,08:10,0.623,0.413,0.657,0.591,0.588,0.269,0.237,northwest,6.7,No
2014/11/08,08:20,0.622,0.411,0.658,0.593,0.587,0.271,0.236,west-northwest,6.6,No
2014/11/08,08:30,0.623,0.413,0.657,0.591,0.589,0.270,0.238,west-northwest,4.2,No
2014/11/08,08:40,0.625,0.412,0.659,0.592,0.589,0.271,0.237,west,1.6,No
2014/11/08,08:50,0.623,0.411,0.657,0.593,0.589,0.271,0.235,south-southwest,1.1,No
2014/11/08,09:00,0.623,0.413,0.658,0.593,0.589,0.270,0.236,north,1.8,No
2014/11/08,09:10,0.624,0.414,0.659,0.594,0.589,0.271,0.236,west,1.0,No
2014/11/08,09:20,0.626,0.411,0.657,0.595,0.589,0.271,0.237,west-northwest,1.5,No
2014/11/08,09:30,0.624,0.413,0.658,0.595,0.589,0.270,0.236,northwest,1.9,No
2014/11/08,09:40,0.624,0.412,0.657,0.595,0.588,0.270,0.236,west,1.5,No
2014/11/08,09:50,0.624,0.413,0.658,0.596,0.590,0.271,0.237,southwest,0.7,No
2014/11/08,10:00,0.624,0.415,0.659,0.596,0.589,0.269,0.236,northeast,0.8,No
2014/11/08,10:10,0.625,0.416,0.659,0.597,0.591,0.270,0.238,east-southeast,0.5,No
2014/11/08,10:20,0.625,0.414,0.659,0.596,0.590,0.269,0.236,east-southeast,1.8,No
2014/11/08,10:30,0.627,0.415,0.658,0.599,0.592,0.272,0.236,northeast,1.6,No
2014/11/08,10:40,0.626,0.415,0.660,0.599,0.592,0.270,0.238,northeast,1.9,No
2014/11/08,10:50,0.628,0.415,0.660,0.598,0.595,0.271,0.236,east-northeast,3.5,No
2014/11/08,11:00,0.627,0.415,0.661,0.602,0.592,0.269,0.238,northeast,2.2,No
2014/11/08,11:10,0.629,0.415,0.661,0.601,0.593,0.271,0.238,east-northeast,2.7,No
2014/11/08,11:20,0.626,0.415,0.660,0.601,0.590,0.270,0.238,east-northeast,2.7,No
2014/11/08,11:30,0.627,0.416,0.662,0.605,0.593,0.271,0.238,east-northeast,2.2,No
2014/11/08,11:40,0.627,0.416,0.659,0.602,0.594,0.272,0.236,east-northeast,1.9,No
2014/11/08,11:50,0.630,0.416,0.661,0.604,0.592,0.269,0.237,east-northeast,3.5,No
2014/11/08,12:00,0.628,0.417,0.660,0.606,0.594,0.270,0.237,east,2.2,No
2014/11/08,12:10,0.628,0.411,0.659,0.607,0.592,0.271,0.237,east,1.8,No
2014/11/08,12:20,0.630,0.408,0.662,0.604,0.595,0.271,0.239,east-northeast,3.2,No
2014/11/08,12:30,0.628,0.407,0.663,0.609,0.595,0.272,0.236,east-northeast,3.1,No
2014/11/08,12:40,0.628,0.407,0.661,0.608,0.593,0.270,0.238,east,2.7,No
2014/11/08,12:50,0.627,0.407,0.663,0.609,0.593,0.271,0.238,east,3.1,No
2014/11/08,13:00,0.628,0.408,0.662,0.608,0.593,0.270,0.238,east-northeast,3.3,No
2014/11/08,13:10,0.626,0.406,0.664,0.609,0.595,0.270,0.239,east-northeast,2.6,No
2014/11/08,13:20,0.626,0.409,0.665,0.609,0.594,0.270,0.237,east-northeast,2.9,No
2014/11/08,13:30,0.627,0.409,0.665,0.611,0.597,0.271,0.238,northeast,1.9,No
2014/11/08,13:40,0.628,0.409,0.663,0.607,0.596,0.271,0.237,east,1.3,No
2014/11/08,13:50,0.627,0.408,0.663,0.608,0.595,0.272,0.240,southeast,0.5,No
2014/11/08,14:00,0.626,0.410,0.661,0.606,0.594,0.273,0.239,southeast,0.8,No
2014/11/08,14:10,0.625,0.407,0.661,0.606,0.592,0.271,0.238,south-southeast,1.2,No
2014/11/08,14:20,0.625,0.407,0.661,0.605,0.593,0.272,0.238,south-southeast,0.8,No
2014/11/08,14:30,0.625,0.407,0.661,0.603,0.592,0.271,0.239,south,2.7,No
2014/11/08,14:40,0.625,0.407,0.661,0.604,0.593,0.272,0.238,south,1.1,No
2014/11/08,14:50,0.627,0.408,0.659,0.604,0.591,0.270,0.238,south,1.4,No
2014/11/08,15:00,0.623,0.406,0.660,0.603,0.591,0.272,0.238,south-southwest,1.0,No
2014/11/08,15:10,0.623,0.406,0.660,0.600,0.591,0.270,0.238,south-southwest,1.5,No
2014/11/08,15:20,0.623,0.405,0.658,0.599,0.592,0.272,0.238,-,CALM,No
2014/11/08,15:30,0.623,0.406,0.655,0.599,0.589,0.270,0.238,south-southwest,1.5,No
2014/11/08,15:40,0.623,0.404,0.658,0.597,0.588,0.271,0.238,south,2.5,No
2014/11/08,15:50,0.623,0.403,0.656,0.599,0.588,0.272,0.239,south-southwest,1.7,No
2014/11/08,16:00,0.624,0.406,0.655,0.594,0.588,0.272,0.239,south-southwest,2.5,No
2014/11/08,16:10,0.622,0.413,0.655,0.596,0.590,0.272,0.238,south,1.2,No
2014/11/08,16:20,0.624,0.412,0.656,0.595,0.588,0.270,0.237,south-southwest,1.7,No
2014/11/08,16:30,0.622,0.413,0.656,0.593,0.586,0.271,0.238,south-southwest,2.1,No
2014/11/08,16:40,0.623,0.413,0.656,0.595,0.587,0.272,0.238,south-southwest,0.9,No
2014/11/08,16:50,0.623,0.411,0.656,0.592,0.588,0.270,0.239,-,CALM,No
2014/11/08,17:00,0.623,0.411,0.655,0.591,0.587,0.272,0.239,north-northwest,1.0,No
2014/11/08,17:10,0.622,0.413,0.656,0.592,0.586,0.271,0.238,north-northwest,1.4,No
2014/11/08,17:20,0.622,0.413,0.658,0.593,0.587,0.272,0.238,north-northwest,1.2,No
2014/11/08,17:30,0.624,0.411,0.656,0.593,0.587,0.271,0.238,northwest,0.9,No
2014/11/08,17:40,0.623,0.412,0.658,0.592,0.589,0.271,0.239,north-northwest,1.1,No
2014/11/08,17:50,0.624,0.413,0.659,0.592,0.588,0.270,0.237,southwest,0.5,No
2014/11/08,18:00,0.624,0.412,0.657,0.593,0.587,0.271,0.238,west,0.5,No
2014/11/08,18:10,0.623,0.411,0.658,0.592,0.586,0.272,0.239,west-southwest,0.9,No
2014/11/08,18:20,0.624,0.412,0.657,0.594,0.591,0.272,0.239,west-southwest,1.4,No
2014/11/08,18:30,0.623,0.413,0.657,0.592,0.589,0.271,0.238,west-southwest,1.9,No
2014/11/08,18:40,0.624,0.413,0.657,0.592,0.588,0.272,0.239,southwest,3.1,No
2014/11/08,18:50,0.624,0.412,0.657,0.594,0.587,0.271,0.238,south-southwest,4.2,No
2014/11/08,19:00,0.623,0.413,0.657,0.594,0.588,0.270,0.239,south-southwest,4.8,No
2014/11/08,19:10,0.623,0.413,0.656,0.593,0.587,0.272,0.239,southwest,4.8,No
2014/11/08,19:20,0.623,0.412,0.657,0.593,0.589,0.270,0.240,south-southwest,4.4,No
2014/11/08,19:30,0.623,0.412,0.657,0.594,0.588,0.272,0.237,south-southwest,4.1,No
2014/11/08,19:40,0.623,0.413,0.658,0.595,0.589,0.271,0.239,south-southwest,4.2,No
2014/11/08,19:50,0.623,0.412,0.659,0.592,0.588,0.271,0.239,south-southwest,4.5,No
2014/11/08,20:00,0.624,0.413,0.656,0.593,0.587,0.271,0.239,south-southwest,4.5,No
2014/11/08,20:10,0.622,0.414,0.658,0.593,0.587,0.271,0.239,south-southwest,4.4,No
2014/11/08,20:20,0.623,0.414,0.656,0.594,0.588,0.271,0.238,southwest,3.3,No
2014/11/08,20:30,0.625,0.413,0.659,0.594,0.589,0.272,0.239,south-southwest,3.8,No
2014/11/08,20:40,0.623,0.413,0.658,0.595,0.588,0.272,0.238,south-southwest,3.8,No
2014/11/08,20:50,0.624,0.412,0.659,0.593,0.588,0.271,0.238,south-southwest,4.1,No
2014/11/08,21:00,0.624,0.412,0.657,0.592,0.588,0.272,0.240,south-southwest,4.5,No
2014/11/08,21:10,0.623,0.414,0.658,0.594,0.590,0.271,0.238,south-southwest,4.5,No
2014/11/08,21:20,0.621,0.412,0.657,0.593,0.588,0.271,0.239,south-southwest,4.4,No
2014/11/08,21:30,0.625,0.411,0.658,0.595,0.587,0.271,0.239,south-southwest,3.6,No
2014/11/08,21:40,0.624,0.412,0.658,0.594,0.588,0.271,0.239,south-southwest,2.8,No
2014/11/08,21:50,0.622,0.413,0.657,0.593,0.587,0.271,0.240,south-southwest,1.9,No
2014/11/08,22:00,0.624,0.413,0.657,0.595,0.588,0.270,0.239,south,2.1,No
2014/11/08,22:10,0.623,0.414,0.657,0.592,0.587,0.272,0.240,south,2.9,No
2014/11/08,22:20,0.624,0.412,0.658,0.593,0.589,0.272,0.240,south,1.4,No
2014/11/08,22:30,0.623,0.413,0.657,0.592,0.589,0.272,0.238,south,3.1,No
2014/11/08,22:40,0.623,0.413,0.657,0.594,0.587,0.271,0.239,south-southwest,2.7,No
2014/11/08,22:50,0.623,0.412,0.658,0.594,0.591,0.272,0.239,south-southwest,1.7,No
2014/11/08,23:00,0.624,0.412,0.658,0.593,0.588,0.270,0.239,south,1.2,No
2014/11/08,23:10,0.622,0.412,0.658,0.592,0.589,0.272,0.239,south-southwest,0.7,No
2014/11/08,23:20,0.624,0.413,0.658,0.592,0.588,0.272,0.240,south-southwest,0.7,No
2014/11/08,23:30,0.622,0.412,0.658,0.594,0.588,0.273,0.239,south-southwest,0.7,No
2014/11/08,23:40,0.624,0.414,0.658,0.595,0.589,0.272,0.238,south-southwest,0.7,No
2014/11/08,23:50,0.624,0.413,0.658,0.594,0.588,0.271,0.239,southwest,0.5,No
